[[{"header":{"parameterUnit":"m.s-1","parameterCategory":2,"la1":30.2991,"la2":30.254,"lo1":-89.0895,"lo2":-89.0444,"dy":0.0017,"dx":0.0017,"nx":28,"ny":28,"refTime":"2025-09-15T21:00:00:Z","depth":"0","parameterNumber":2,"parameterNumberName":"U-component_of_CURRENTS"},"data":[0,0,0,0,0,0,0,0,0,0,0,0,0,0,0,0,0,0,0,0,0,0,0,0,0,0,0,0,0,0,0,0,0,0,0,0,0,0,0,0,0,0,0,0,0,0,0,0,0,0,0,0,0,0,0,0,0,0,-0.3005,-0.3006,0,-0.3028,-0.3028,-0.3028,-0.2958,-0.2956,-0.2955,-0.2953,-0.2847,-0.2845,-0.2844,0,0,0,0,0,0,0,0,0,0,0,0,0,-0.2922,-0.2923,-0.3005,-0.3006,-0.3007,-0.3028,-0.3028,-0.3028,-0.2958,-0.2956,-0.2954,-0.2953,-0.2847,-0.2846,-0.2844,0,0,0,0,0,0,0,0,0,0,0,0,0,-0.2947,-0.2924,-0.3005,-0.298,-0.2978,-0.3028,-0.3028,-0.3028,-0.2959,-0.2956,-0.2954,-0.2952,-0.2848,-0.2846,-0.2844,-0.2877,0,0,-0.2837,-0.2836,0,0,0,0,0,0,0,0,-0.2945,-0.2949,-0.2983,-0.2982,-0.298,-0.2994,-0.296,-0.2973,-0.2959,-0.2959,-0.2953,-0.2951,-0.289,-0.2884,-0.2886,-0.2872,-0.2867,-0.2837,-0.2836,-0.2835,-0.2834,0,0,0,0,0,0,0,-0.2944,-0.2948,-0.3008,-0.2984,-0.2983,-0.2975,-0.2975,-0.2962,-0.293,-0.2959,-0.2956,-0.2969,-0.2887,-0.2889,-0.2883,-0.2866,-0.2837,-0.2835,-0.2834,-0.2833,-0.2631,-0.2627,0,0,0,0,0,0,-0.2956,-0.2947,-0.3007,-0.3009,-0.2964,-0.2979,-0.2978,-0.2986,-0.2933,-0.2925,-0.2971,-0.2966,-0.2893,-0.2885,-0.2879,-0.273,-0.2835,-0.2833,-0.2832,-0.2635,-0.263,-0.2626,0,0,0,0,0,0,-0.2954,-0.2961,-0.3006,-0.2984,-0.299,-0.2983,-0.2992,-0.2988,-0.2968,-0.2945,-0.2932,-0.2954,-0.2891,-0.2882,-0.2803,-0.2732,-0.2832,-0.283,-0.264,-0.2634,-0.2628,-0.255,0,0,0,0,0,0,-0.2951,-0.296,-0.2953,-0.2985,-0.2992,-0.2956,-0.2995,-0.299,-0.2985,-0.2977,-0.2926,-0.2915,-0.2889,-0.2806,-0.2801,-0.2731,-0.2828,-0.2645,-0.2637,-0.263,-0.2557,-0.2542,-0.2528,0,0,0,0,0,-0.2948,-0.2904,-0.2953,-0.296,-0.2988,-0.2953,-0.2951,-0.2938,-0.2986,-0.2924,-0.2907,-0.2916,-0.2752,-0.2802,-0.2797,-0.2724,-0.2649,-0.2639,-0.263,-0.2564,-0.2545,-0.2528,0,0,0,0,0,0,-0.2821,-0.2897,-0.2948,-0.2922,-0.2922,-0.2942,-0.2903,-0.294,-0.2891,-0.2897,-0.2888,-0.2871,-0.2766,-0.2759,-0.2815,-0.2635,-0.2693,-0.2683,-0.2644,-0.2626,-0.2612,-0.2625,-0.2827,0,0,0,0,0,-0.2816,-0.2821,-0.2875,-0.2848,-0.2858,-0.2903,-0.2896,-0.2902,-0.2885,-0.2864,-0.2835,-0.2795,-0.2732,-0.2692,-0.2633,-0.2565,-0.2581,-0.2503,-0.2488,-0.2476,-0.2478,-0.2456,-0.2442,-0.2595,-0.2595,-0.2596,0,0,-0.2768,-0.2805,-0.281,-0.2826,-0.2845,-0.2808,-0.2885,-0.2862,-0.2818,-0.2863,-0.2767,-0.2748,-0.2701,-0.2591,-0.2544,-0.2574,-0.2431,-0.2464,-0.2455,-0.2463,-0.2445,-0.2431,-0.2418,-0.2589,-0.259,-0.2591,0,0,-0.2635,-0.2707,-0.266,-0.2666,-0.2694,-0.2724,-0.272,-0.274,-0.2723,-0.2661,-0.267,-0.2613,-0.2525,-0.247,-0.2439,-0.2317,-0.2356,-0.2287,-0.2228,-0.2205,-0.2194,-0.2185,-0.2164,-0.2154,-0.2279,-0.2279,-0.2279,0,-0.2568,-0.2554,-0.2625,-0.2573,-0.259,-0.2683,-0.2635,-0.2619,-0.2598,-0.2601,-0.2592,-0.2502,-0.2458,-0.2364,-0.2298,-0.2285,-0.2292,-0.2308,-0.2192,-0.2183,-0.2175,-0.2157,-0.2146,-0.2274,-0.2275,-0.2275,-0.2276,0,-0.2397,-0.2407,-0.2373,-0.2376,-0.237,-0.2352,-0.2385,-0.2369,-0.2407,-0.2416,-0.2346,-0.2301,-0.2259,-0.2213,-0.2214,-0.2126,-0.2155,-0.2185,-0.2254,-0.2156,-0.2141,-0.2131,-0.2267,-0.2269,-0.227,-0.2271,0,0,-0.2218,-0.226,-0.2252,-0.2283,-0.2303,-0.2295,-0.2237,-0.2241,-0.225,-0.2197,-0.2182,-0.2061,-0.2113,-0.2079,-0.2082,-0.2047,-0.1975,-0.2088,-0.2089,-0.2097,-0.1934,-0.1845,-0.1827,-0.2004,-0.2002,-0.2,-0.1941,0,-0.2086,-0.2022,-0.2057,-0.2016,-0.2025,-0.211,-0.2062,-0.2074,-0.2095,-0.2083,-0.2076,-0.2037,-0.2038,-0.2041,-0.1999,-0.2002,-0.195,-0.1989,-0.2003,-0.2002,-0.196,-0.1812,-0.1709,-0.1638,-0.1933,-0.1931,-0.193,0,-0.1917,-0.1931,-0.1883,-0.1969,-0.1975,-0.1937,-0.1996,-0.1963,-0.1975,-0.1993,-0.1981,-0.2,-0.1945,-0.1966,-0.1903,-0.1939,-0.1916,-0.1907,-0.1905,-0.1849,-0.1894,-0.1783,-0.1611,-0.1613,-0.1917,-0.1918,-0.1919,0,-0.1832,-0.1826,-0.1826,-0.1838,-0.1893,-0.1892,-0.1917,-0.1937,-0.1948,-0.1954,-0.197,-0.1935,-0.1927,-0.1894,-0.1863,-0.1894,-0.1802,-0.185,-0.1736,-0.1731,-0.1655,-0.1646,-0.1512,-0.1774,-0.1774,-0.1775,-0.1775,0,-0.1732,-0.1731,-0.1798,-0.1801,-0.1806,-0.1854,-0.1856,-0.1879,-0.191,-0.1891,-0.1933,-0.1902,-0.1911,-0.187,-0.1845,-0.1744,-0.1782,-0.1688,-0.169,-0.1618,-0.1606,-0.1619,-0.1668,-0.1772,-0.1773,-0.1773,-0.1774,0,-0.1643,-0.1687,-0.1696,-0.1756,-0.1772,-0.1773,-0.1832,-0.1838,-0.1879,-0.1856,-0.1859,-0.1879,-0.1809,-0.1798,-0.1738,-0.1705,-0.1596,-0.1586,-0.1495,-0.1485,-0.1376,-0.1425,-0.1323,-0.1286,-0.145,-0.1447,-0.1445,0,-0.1593,-0.1591,-0.1651,-0.1659,-0.1682,-0.1709,-0.1728,-0.1801,-0.1811,-0.1806,-0.1786,-0.1744,-0.163,-0.1538,-0.1495,-0.1411,-0.1458,-0.1292,-0.1304,-0.1306,-0.1365,-0.1425,-0.1407,-0.1176,-0.1171,-0.1168,-0.1165,0,-0.1498,-0.1521,-0.1536,-0.1559,-0.158,-0.1579,-0.1611,-0.1601,-0.1645,-0.1603,-0.1473,-0.1374,-0.1344,-0.1205,-0.1178,-0.1137,-0.1259,-0.1213,-0.1236,-0.1127,-0.1163,-0.1151,-0.1301,-0.1133,-0.1136,-0.1138,-0.114,-0.1141,-0.1412,-0.1402,-0.1424,-0.1431,-0.1443,-0.1364,-0.1293,-0.1292,-0.1194,-0.1037,-0.1076,-0.0846,-0.0926,-0.0852,-0.0857,-0.089,-0.0988,-0.0881,-0.094,-0.0999,-0.0946,-0.1007,-0.0831,-0.0833,-0.0834,-0.0835,-0.0836,0,-0.1292,-0.1293,-0.1295,-0.1256,-0.1181,-0.1233,-0.1159,-0.1049,-0.0819,-0.068,-0.0482,-0.0299,-0.032,-0.0481,-0.0639,-0.0643,-0.067,-0.0664,-0.074,-0.0734,-0.0785,-0.0753,-0.0524,-0.0524,-0.0524,-0.0524,-0.0524,-0.0524,-0.1228,-0.1183,-0.1185,-0.1001,-0.0953,-0.0783,-0.0678,-0.0513,-0.0387,-0.0034,0.0156,0.0246,-0.0034,-0.0397,-0.0584,-0.0577,-0.0622,-0.0586,-0.0659,-0.0725,-0.0751,-0.0777,-0.0755,-0.053,-0.053,-0.0553,-0.0553,-0.0553]},{"header":{"parameterUnit":"m.s-1","parameterCategory":2,"la1":30.2991,"la2":30.254,"lo1":-89.0895,"lo2":-89.0444,"dy":0.0017,"dx":0.0017,"nx":28,"ny":28,"refTime":"2025-09-15T21:00:00:Z","depth":"0","parameterNumber":3,"parameterNumberName":"V-component_of_CURRENTS"},"data":[0,0,0,0,0,0,0,0,0,0,0,0,0,0,0,0,0,0,0,0,0,0,0,0,0,0,0,0,0,0,0,0,0,0,0,0,0,0,0,0,0,0,0,0,0,0,0,0,0,0,0,0,0,0,0,0,0,0,0.0065,0.0066,0,0.0166,0.0168,0.0169,0.0233,0.0233,0.0234,0.0234,0.0376,0.0379,0.0382,0,0,0,0,0,0,0,0,0,0,0,0,0,0.0,0.0,0.0065,0.0067,0.0068,0.0166,0.0168,0.0169,0.0233,0.0233,0.0234,0.0234,0.0374,0.0378,0.0382,0,0,0,0,0,0,0,0,0,0,0,0,0,0.0056,0.0001,0.0065,0.0112,0.0118,0.0166,0.0168,0.0169,0.0232,0.0233,0.0234,0.0235,0.0373,0.0378,0.0383,0.0399,0,0,0.0398,0.04,0,0,0,0,0,0,0,0,0.0053,0.0058,0.0104,0.0109,0.0115,0.0189,0.0197,0.0249,0.0232,0.0188,0.0234,0.0235,0.0317,0.0327,0.0342,0.0406,0.0412,0.0399,0.0402,0.0404,0.0405,0,0,0,0,0,0,0,0.0049,0.0055,0.0104,0.0106,0.0112,0.0154,0.0162,0.0207,0.0247,0.0192,0.0197,0.021,0.032,0.0337,0.0346,0.0414,0.0398,0.0403,0.0406,0.0408,0.047,0.0469,0,0,0,0,0,0,0.0034,0.005,0.0101,0.0107,0.0087,0.0154,0.0163,0.0163,0.0246,0.0259,0.0209,0.0212,0.0328,0.034,0.0351,0.0347,0.0404,0.0408,0.0411,0.0472,0.047,0.0469,0,0,0,0,0,0,0.0032,0.0037,0.0097,0.0083,0.0094,0.0154,0.0154,0.0165,0.0179,0.0259,0.0273,0.0212,0.0329,0.0344,0.0374,0.0354,0.0411,0.0415,0.0473,0.0471,0.0469,0.0357,0,0,0,0,0,0,0.0029,0.0035,0.0017,0.0081,0.0094,0.0096,0.0154,0.0167,0.0187,0.0192,0.0266,0.028,0.0331,0.0366,0.0379,0.0362,0.0419,0.0475,0.0472,0.047,0.0363,0.0352,0.0342,0,0,0,0,0,0.0026,-0.0014,0.0015,0.0021,0.0071,0.0094,0.0102,0.0149,0.0186,0.0169,0.0228,0.0278,0.036,0.0369,0.0384,0.0369,0.0476,0.0473,0.047,0.0367,0.0354,0.0343,0,0,0,0,0,0,-0.0081,-0.0009,0.0024,-0.0001,0.0036,0.0105,0.0094,0.014,0.0174,0.0185,0.0265,0.0282,0.0302,0.0346,0.0355,0.0377,0.0424,0.0424,0.0341,0.0329,0.0319,0.0311,0.0423,0,0,0,0,0,-0.0104,-0.0103,-0.0035,-0.006,-0.004,0.0031,0.0045,0.0083,0.0131,0.0148,0.0201,0.0258,0.0302,0.0323,0.0365,0.0378,0.043,0.0376,0.0366,0.0357,0.036,0.0406,0.0401,0.0459,0.0459,0.0459,0,0,-0.015,-0.0116,-0.0114,-0.0079,-0.0041,-0.0025,0.0039,0.0053,0.0066,0.0158,0.0175,0.0226,0.0298,0.0311,0.0323,0.0345,0.0365,0.0353,0.0345,0.0353,0.0403,0.0397,0.0393,0.0457,0.0457,0.0458,0,0,-0.0223,-0.021,-0.0211,-0.0186,-0.0132,-0.009,-0.0088,-0.0021,0.0003,0.003,0.0101,0.0133,0.0198,0.0239,0.0273,0.0232,0.0312,0.0245,0.0188,0.0232,0.0228,0.0225,0.0272,0.0275,0.0236,0.0236,0.0236,0,-0.0279,-0.0268,-0.0218,-0.021,-0.0193,-0.012,-0.0116,-0.0088,-0.0025,-0.0003,0.0015,0.0114,0.0163,0.0202,0.0183,0.0209,0.0253,0.0228,0.0219,0.0217,0.0216,0.0266,0.027,0.023,0.0231,0.0232,0.0232,0,-0.032,-0.0322,-0.0332,-0.0285,-0.0273,-0.0269,-0.0207,-0.0196,-0.0151,-0.0104,-0.0065,-0.0003,0.0061,0.007,0.0117,0.0133,0.0173,0.0202,0.0249,0.0204,0.0259,0.0265,0.0222,0.0224,0.0226,0.0227,0,0,-0.0395,-0.0361,-0.0361,-0.0351,-0.0306,-0.0297,-0.029,-0.0247,-0.0225,-0.0187,-0.0155,-0.0104,-0.0055,-0.0015,0.0042,0.007,0.0089,0.0124,0.0129,0.017,0.0195,0.0235,0.0247,0.0122,0.0122,0.0123,0.0233,0,-0.043,-0.0441,-0.0407,-0.0422,-0.0417,-0.0366,-0.0363,-0.0324,-0.0277,-0.024,-0.0177,-0.013,-0.009,-0.006,-0.0028,0.0076,0.0103,0.0058,0.0235,0.024,0.0281,0.0254,0.0305,0.0409,0.0239,0.024,0.0241,0,-0.0451,-0.0458,-0.0477,-0.0469,-0.046,-0.0462,-0.0429,-0.0414,-0.035,-0.0311,-0.0258,-0.0192,-0.0134,-0.0102,0.003,0.0004,0.0085,0.0151,0.0157,0.0242,0.0292,0.043,0.0427,0.0534,0.0252,0.0251,0.025,0,-0.0499,-0.05,-0.0521,-0.0519,-0.0501,-0.0501,-0.0488,-0.0437,-0.0412,-0.035,-0.0313,-0.0236,-0.0172,-0.0083,0.0057,0.0048,0.0208,0.0218,0.0327,0.0331,0.0435,0.0447,0.0559,0.0297,0.0296,0.0296,0.0296,0,-0.0537,-0.0551,-0.0547,-0.056,-0.0582,-0.055,-0.0552,-0.0521,-0.0464,-0.0392,-0.0349,-0.0262,-0.0162,-0.0048,0.0051,0.0219,0.021,0.0319,0.0362,0.0395,0.0402,0.0549,0.058,0.03,0.0299,0.0299,0.0298,0,-0.0579,-0.0575,-0.06,-0.0603,-0.0605,-0.0621,-0.0598,-0.0578,-0.0525,-0.0426,-0.0404,-0.0277,-0.012,-0.002,0.0153,0.0235,0.0449,0.0428,0.0459,0.0501,0.0679,0.0701,0.0852,0.0939,0.0556,0.0558,0.0559,0,-0.0598,-0.0617,-0.0643,-0.0659,-0.0661,-0.0675,-0.0666,-0.062,-0.0553,-0.0389,-0.0311,-0.018,0.0014,0.0231,0.0332,0.0483,0.0555,0.0623,0.0602,0.0698,0.0754,0.0757,0.0819,0.0697,0.07,0.0702,0.0703,0,-0.0637,-0.0646,-0.067,-0.0705,-0.071,-0.0684,-0.0637,-0.0586,-0.0452,-0.0329,-0.0058,0.0097,0.0265,0.0457,0.0555,0.0649,0.0709,0.0668,0.0771,0.0872,0.0883,0.0984,0.0613,0.0721,0.0719,0.0718,0.0717,0.0716,-0.0659,-0.069,-0.0713,-0.0733,-0.0707,-0.0596,-0.054,-0.0421,-0.0246,0.0029,0.0181,0.0469,0.0639,0.0786,0.0826,0.0916,0.0872,0.0993,0.1012,0.1007,0.1084,0.0744,0.0891,0.089,0.0889,0.0889,0.0888,0,-0.0667,-0.0693,-0.0729,-0.0687,-0.0584,-0.0585,-0.0438,-0.0325,-0.0045,0.0204,0.0503,0.0919,0.1059,0.1107,0.1177,0.1263,0.1277,0.1318,0.1345,0.1394,0.1112,0.1112,0.131,0.131,0.131,0.131,0.1309,0.1309,-0.0671,-0.07,-0.0712,-0.0546,-0.0477,-0.0306,-0.0187,-0.0013,0.0181,0.0608,0.09,0.1139,0.1326,0.1451,0.1536,0.156,0.1681,0.1649,0.1711,0.1517,0.1488,0.146,0.1469,0.1738,0.1739,0.201,0.2012,0.2014]}],[{"header":{"parameterUnit":"m.s-1","parameterCategory":2,"la1":30.2991,"la2":30.254,"lo1":-89.0895,"lo2":-89.0444,"dy":0.0017,"dx":0.0017,"nx":28,"ny":28,"refTime":"2025-09-15T21:00:00:Z","depth":"2","parameterNumber":2,"parameterNumberName":"U-component_of_CURRENTS"},"data":[0,0,0,0,0,0,0,0,0,0,0,0,0,0,0,0,0,0,0,0,0,0,0,0,0,0,0,0,0,0,0,0,0,0,0,0,0,0,0,0,0,0,0,0,0,0,0,0,0,0,0,0,0,0,0,0,0,0,-0.1973,-0.1974,0,-0.2067,-0.2069,-0.207,-0.207,-0.2068,-0.2067,-0.2066,-0.2159,-0.2162,-0.2166,0,0,0,0,0,0,0,0,0,0,0,0,0,-0.1907,-0.1907,-0.1973,-0.1974,-0.1975,-0.2067,-0.2069,-0.207,-0.207,-0.2068,-0.2067,-0.2065,-0.2157,-0.2162,-0.2166,0,0,0,0,0,0,0,0,0,0,0,0,0,-0.1962,-0.1907,-0.1973,-0.1986,-0.1988,-0.2067,-0.2069,-0.207,-0.207,-0.2068,-0.2066,-0.2064,-0.2156,-0.2161,-0.2167,-0.2239,0,0,-0.2183,-0.2186,0,0,0,0,0,0,0,0,-0.1959,-0.1964,-0.1983,-0.1985,-0.1988,-0.2054,-0.2079,-0.2126,-0.2071,-0.204,-0.2066,-0.2064,-0.2125,-0.2132,-0.2155,-0.2244,-0.2247,-0.2184,-0.2187,-0.219,-0.2191,0,0,0,0,0,0,0,-0.1955,-0.1961,-0.2011,-0.1984,-0.1987,-0.2026,-0.2031,-0.2089,-0.2092,-0.2042,-0.2042,-0.2052,-0.2126,-0.215,-0.2158,-0.2249,-0.2184,-0.2189,-0.2192,-0.2194,-0.2259,-0.2257,0,0,0,0,0,0,-0.1938,-0.1957,-0.2008,-0.2014,-0.1967,-0.2028,-0.2034,-0.2035,-0.2092,-0.2098,-0.2054,-0.2052,-0.2142,-0.2151,-0.2161,-0.2159,-0.219,-0.2195,-0.2198,-0.226,-0.2258,-0.2257,0,0,0,0,0,0,-0.1936,-0.1942,-0.2004,-0.1988,-0.1998,-0.203,-0.2033,-0.2038,-0.207,-0.21,-0.2107,-0.208,-0.2141,-0.2153,-0.2185,-0.2165,-0.2197,-0.2202,-0.2262,-0.226,-0.2257,-0.2213,0,0,0,0,0,0,-0.1934,-0.194,-0.1968,-0.1986,-0.1998,-0.204,-0.2035,-0.2041,-0.2078,-0.2077,-0.2126,-0.2132,-0.214,-0.2177,-0.2191,-0.2173,-0.2206,-0.2264,-0.2261,-0.2258,-0.2217,-0.2209,-0.2203,0,0,0,0,0,-0.1931,-0.1954,-0.1969,-0.1977,-0.2024,-0.204,-0.205,-0.2068,-0.2081,-0.2092,-0.2108,-0.213,-0.2166,-0.2182,-0.2198,-0.2182,-0.2266,-0.2262,-0.2258,-0.2219,-0.2211,-0.2204,0,0,0,0,0,0,-0.1946,-0.1958,-0.1973,-0.2002,-0.2019,-0.2039,-0.2062,-0.2084,-0.2113,-0.2115,-0.2141,-0.2148,-0.2156,-0.2182,-0.2198,-0.2184,-0.2209,-0.2209,-0.2173,-0.2166,-0.2159,-0.2147,-0.2211,0,0,0,0,0,-0.1963,-0.1976,-0.1994,-0.2019,-0.2024,-0.2054,-0.2078,-0.2087,-0.2104,-0.2117,-0.2136,-0.215,-0.2158,-0.2173,-0.2184,-0.2214,-0.2214,-0.2201,-0.2194,-0.2189,-0.2185,-0.2166,-0.2158,-0.2245,-0.2245,-0.2245,0,0,-0.1971,-0.1986,-0.1992,-0.2023,-0.2038,-0.2039,-0.2062,-0.2085,-0.2085,-0.2126,-0.213,-0.2142,-0.2159,-0.2155,-0.2161,-0.2177,-0.216,-0.2184,-0.218,-0.2179,-0.2161,-0.2153,-0.2146,-0.2243,-0.2243,-0.2243,0,0,-0.1964,-0.2005,-0.1999,-0.2015,-0.2041,-0.2054,-0.2062,-0.2079,-0.2084,-0.2106,-0.2104,-0.21,-0.2142,-0.2119,-0.2124,-0.2099,-0.2124,-0.2103,-0.2074,-0.2054,-0.2047,-0.2041,-0.2019,-0.2011,-0.2103,-0.2103,-0.2103,0,-0.1976,-0.1977,-0.2004,-0.2002,-0.2015,-0.2053,-0.2047,-0.2062,-0.2085,-0.2088,-0.2092,-0.21,-0.2112,-0.2095,-0.2064,-0.2084,-0.2084,-0.2107,-0.2047,-0.2041,-0.2036,-0.2014,-0.2007,-0.21,-0.2101,-0.2101,-0.2101,0,-0.1944,-0.1966,-0.1962,-0.1964,-0.1985,-0.1991,-0.2004,-0.2018,-0.2038,-0.2046,-0.2039,-0.2042,-0.2043,-0.2033,-0.2047,-0.2008,-0.2022,-0.204,-0.2071,-0.2025,-0.2004,-0.1997,-0.2097,-0.2098,-0.2098,-0.2099,0,0,-0.1894,-0.1932,-0.1929,-0.1943,-0.197,-0.1978,-0.1978,-0.1987,-0.1993,-0.1996,-0.1991,-0.197,-0.198,-0.1982,-0.1987,-0.1964,-0.1913,-0.1987,-0.1988,-0.1972,-0.1873,-0.179,-0.1775,-0.1933,-0.1931,-0.193,-0.1871,0,-0.1855,-0.1856,-0.1881,-0.1885,-0.1888,-0.1929,-0.193,-0.1949,-0.1965,-0.1968,-0.1962,-0.196,-0.1959,-0.1963,-0.1935,-0.1932,-0.1895,-0.1928,-0.1915,-0.1914,-0.1852,-0.1763,-0.164,-0.1569,-0.1864,-0.1863,-0.1862,0,-0.1792,-0.1816,-0.1813,-0.1864,-0.1866,-0.1871,-0.1898,-0.1907,-0.1923,-0.1937,-0.1932,-0.1943,-0.1911,-0.1919,-0.1868,-0.1898,-0.1872,-0.1859,-0.1857,-0.1792,-0.1816,-0.1665,-0.1545,-0.185,-0.1851,-0.1852,-0.1852,0,-0.1731,-0.1762,-0.1768,-0.1781,-0.1834,-0.184,-0.1865,-0.189,-0.1904,-0.1916,-0.1928,-0.1907,-0.1898,-0.1868,-0.1835,-0.186,-0.1778,-0.1812,-0.1704,-0.1699,-0.1594,-0.1581,-0.175,-0.175,-0.175,-0.175,-0.175,0,-0.1678,-0.1681,-0.1745,-0.175,-0.1762,-0.181,-0.182,-0.1844,-0.1877,-0.1877,-0.1906,-0.1889,-0.1886,-0.1849,-0.1822,-0.1726,-0.1762,-0.1669,-0.1664,-0.1572,-0.1559,-0.1813,-0.1822,-0.1748,-0.1749,-0.1749,-0.1749,0,-0.16,-0.1642,-0.1656,-0.1716,-0.1733,-0.1739,-0.1798,-0.1802,-0.185,-0.1849,-0.1854,-0.1869,-0.1805,-0.1783,-0.1725,-0.1691,-0.1625,-0.1579,-0.1466,-0.1447,-0.1566,-0.1573,-0.1455,-0.1451,-0.1448,-0.1445,-0.1443,0,-0.1557,-0.1558,-0.1618,-0.1624,-0.1648,-0.1678,-0.1692,-0.1765,-0.1771,-0.1816,-0.1797,-0.1767,-0.1707,-0.16,-0.1507,-0.1415,-0.1504,-0.1279,-0.1283,-0.1521,-0.153,-0.1541,-0.1552,-0.1131,-0.1126,-0.1122,-0.1119,0,-0.1473,-0.1496,-0.1512,-0.1532,-0.1549,-0.1572,-0.16,-0.1611,-0.1679,-0.1696,-0.1685,-0.1654,-0.1534,-0.1368,-0.1249,-0.119,-0.1287,-0.1197,-0.1458,-0.1224,-0.121,-0.1221,-0.1243,-0.1086,-0.1089,-0.1091,-0.1093,-0.1095,-0.1397,-0.1389,-0.141,-0.1415,-0.1435,-0.1432,-0.1412,-0.1455,-0.1463,-0.1454,-0.1518,-0.1432,-0.1381,-0.1111,-0.1011,-0.0919,-0.1014,-0.0995,-0.1009,-0.1027,-0.0999,-0.098,-0.0807,-0.0809,-0.0811,-0.0812,-0.0813,0,-0.1294,-0.1292,-0.1289,-0.1287,-0.1254,-0.131,-0.1315,-0.1276,-0.1244,-0.1264,-0.1256,-0.1107,-0.0968,-0.0901,-0.0688,-0.0644,-0.0664,-0.063,-0.067,-0.0702,-0.0731,-0.0692,-0.0417,-0.0416,-0.0415,-0.0414,0,0,-0.1237,-0.1192,-0.1189,-0.1097,-0.1093,-0.1017,-0.0995,-0.0972,-0.0958,-0.0909,-0.0875,-0.0953,-0.0906,-0.0701,-0.0617,-0.0479,-0.0597,-0.0448,-0.0762,-0.0842,-0.0871,-0.0928,-0.09,0,0,0,0,0]},{"header":{"parameterUnit":"m.s-1","parameterCategory":2,"la1":30.2991,"la2":30.254,"lo1":-89.0895,"lo2":-89.0444,"dy":0.0017,"dx":0.0017,"nx":28,"ny":28,"refTime":"2025-09-15T21:00:00:Z","depth":"2","parameterNumber":3,"parameterNumberName":"V-component_of_CURRENTS"},"data":[0,0,0,0,0,0,0,0,0,0,0,0,0,0,0,0,0,0,0,0,0,0,0,0,0,0,0,0,0,0,0,0,0,0,0,0,0,0,0,0,0,0,0,0,0,0,0,0,0,0,0,0,0,0,0,0,0,0,-0.0404,-0.0403,0,-0.0332,-0.0331,-0.033,-0.0295,-0.0296,-0.0296,-0.0297,-0.0144,-0.014,-0.0135,0,0,0,0,0,0,0,0,0,0,0,0,0,-0.0449,-0.0449,-0.0404,-0.0403,-0.0403,-0.0332,-0.0331,-0.0329,-0.0295,-0.0296,-0.0296,-0.0297,-0.0146,-0.014,-0.0135,0,0,0,0,0,0,0,0,0,0,0,0,0,-0.0404,-0.0448,-0.0404,-0.0381,-0.0379,-0.0333,-0.0331,-0.0329,-0.0295,-0.0296,-0.0296,-0.0297,-0.0147,-0.0141,-0.0134,-0.0077,0,0,-0.0113,-0.011,0,0,0,0,0,0,0,0,-0.0407,-0.0402,-0.0385,-0.0383,-0.038,-0.0328,-0.0291,-0.0243,-0.0295,-0.0321,-0.0297,-0.0297,-0.0201,-0.019,-0.0168,-0.007,-0.0064,-0.0113,-0.0109,-0.0106,-0.0104,0,0,0,0,0,0,0,-0.041,-0.0404,-0.037,-0.0384,-0.0381,-0.0354,-0.0348,-0.0282,-0.0252,-0.0319,-0.0318,-0.0318,-0.0198,-0.0175,-0.0164,-0.0061,-0.0113,-0.0107,-0.0103,-0.01,0.0081,0.0082,0,0,0,0,0,0,-0.0431,-0.0408,-0.0373,-0.0369,-0.0401,-0.0353,-0.0346,-0.034,-0.0255,-0.0245,-0.0317,-0.0316,-0.0186,-0.0172,-0.0159,-0.0105,-0.0106,-0.0099,-0.0095,0.008,0.0081,0.0082,0,0,0,0,0,0,-0.0433,-0.0429,-0.0375,-0.0391,-0.0383,-0.0352,-0.0344,-0.0338,-0.0318,-0.0255,-0.0243,-0.0305,-0.0186,-0.0168,-0.012,-0.0098,-0.0096,-0.009,0.0079,0.008,0.0081,0.0015,0,0,0,0,0,0,-0.0434,-0.0429,-0.042,-0.0392,-0.0383,-0.035,-0.0344,-0.0336,-0.0319,-0.0317,-0.024,-0.0227,-0.0186,-0.013,-0.0113,-0.0089,-0.0085,0.0078,0.008,0.0081,0.0017,0.0014,0.0012,0,0,0,0,0,-0.0436,-0.0425,-0.0419,-0.0415,-0.0375,-0.0351,-0.0342,-0.032,-0.0318,-0.0304,-0.027,-0.023,-0.0109,-0.0125,-0.0105,-0.0078,0.0078,0.0079,0.0081,0.0018,0.0015,0.0012,0,0,0,0,0,0,-0.0436,-0.042,-0.0414,-0.0397,-0.0378,-0.0347,-0.0333,-0.032,-0.0281,-0.028,-0.0225,-0.0208,-0.0154,-0.0107,-0.0126,-0.0021,-0.0005,0.0,-0.006,-0.0062,-0.0064,-0.008,-0.0079,0,0,0,0,0,-0.0434,-0.0427,-0.0405,-0.0394,-0.0385,-0.0359,-0.0344,-0.0332,-0.0302,-0.0285,-0.0235,-0.018,-0.0127,-0.0093,-0.0036,0.0022,0.0056,0.0055,0.0053,0.005,0.0052,0.01,0.0101,0.0087,0.0087,0.0087,0,0,-0.0437,-0.0424,-0.0422,-0.0394,-0.0377,-0.0363,-0.035,-0.0333,-0.0318,-0.0272,-0.0229,-0.0184,-0.0115,-0.006,-0.0029,-0.002,0.0073,0.0052,0.0049,0.0053,0.0101,0.0102,0.0103,0.0088,0.0088,0.0088,0,0,-0.0441,-0.0423,-0.0418,-0.0403,-0.0383,-0.0365,-0.0364,-0.0331,-0.0311,-0.0271,-0.0238,-0.0194,-0.0101,-0.0059,-0.0024,0.0,0.0055,0.0031,0.0013,0.0058,0.0059,0.0061,0.01,0.0105,0.0033,0.0033,0.0033,0,-0.0444,-0.0434,-0.0412,-0.0402,-0.0397,-0.0371,-0.0367,-0.0335,-0.0292,-0.0274,-0.0265,-0.0154,-0.0101,-0.0042,-0.0039,-0.0005,0.0027,0.0012,0.0052,0.0055,0.0057,0.0097,0.0104,0.003,0.003,0.0031,0.0031,0,-0.0444,-0.0436,-0.0433,-0.0415,-0.0399,-0.0394,-0.0362,-0.0338,-0.0314,-0.0284,-0.0227,-0.0167,-0.0104,-0.0075,-0.0048,0.0003,0.0021,0.0037,0.0051,0.0054,0.0097,0.0105,0.0026,0.0027,0.0028,0.0028,0,0,-0.0462,-0.044,-0.044,-0.0442,-0.0411,-0.0404,-0.0376,-0.0344,-0.0329,-0.0274,-0.0247,-0.0166,-0.0139,-0.0098,-0.0055,-0.0015,0.0024,0.0014,0.0018,0.0037,0.0122,0.0141,0.0152,0.0044,0.0045,0.0046,0.0142,0,-0.0474,-0.0475,-0.0451,-0.0453,-0.0456,-0.0424,-0.0402,-0.0368,-0.0327,-0.0287,-0.0226,-0.0179,-0.0144,-0.0122,-0.0076,0.0003,0.0044,-0.0003,0.0131,0.0135,0.0138,0.0162,0.0144,0.0229,0.015,0.0151,0.0152,0,-0.0483,-0.0486,-0.0495,-0.0488,-0.0485,-0.0476,-0.0449,-0.0424,-0.0358,-0.0325,-0.027,-0.0219,-0.0149,-0.0127,0.0003,-0.0029,0.0041,0.0098,0.0103,0.0151,0.0169,0.0217,0.0247,0.0166,0.0165,0.0164,0.0163,0,-0.0525,-0.0517,-0.0532,-0.053,-0.051,-0.0507,-0.0492,-0.044,-0.0417,-0.0352,-0.0324,-0.0237,-0.0185,-0.0094,0.0026,0.0016,0.0167,0.0171,0.0255,0.0257,0.0285,0.0287,0.026,0.026,0.026,0.0259,0.0259,0,-0.0553,-0.0564,-0.0557,-0.0568,-0.0585,-0.0552,-0.0549,-0.0517,-0.0463,-0.0432,-0.0351,-0.03,-0.0173,-0.0071,0.0024,0.017,0.0171,0.026,0.0287,0.0262,0.0261,0.0242,0.0239,0.0263,0.0262,0.0261,0.0261,0,-0.0596,-0.0588,-0.061,-0.0606,-0.0607,-0.0621,-0.06,-0.0589,-0.0529,-0.0485,-0.0467,-0.0335,-0.0196,-0.0068,0.0097,0.0176,0.0302,0.0351,0.031,0.033,0.0359,0.0352,0.0453,0.0454,0.0456,0.0457,0.0458,0,-0.0616,-0.0632,-0.0652,-0.0672,-0.0673,-0.0684,-0.0687,-0.0636,-0.0616,-0.05,-0.0478,-0.0332,-0.0222,0.0026,0.0192,0.0363,0.0357,0.0439,0.042,0.0365,0.0382,0.0372,0.0363,0.0432,0.0432,0.0433,0.0433,0,-0.0657,-0.0664,-0.0685,-0.0732,-0.075,-0.0769,-0.0764,-0.0758,-0.0682,-0.0631,-0.0527,-0.043,-0.0159,0.0042,0.0275,0.0373,0.0406,0.0456,0.043,0.0378,0.0351,0.0365,0.0356,0.0438,0.0438,0.0437,0.0437,0.0437,-0.0684,-0.0715,-0.0745,-0.0786,-0.0818,-0.0849,-0.0853,-0.0829,-0.0802,-0.0688,-0.0599,-0.0412,-0.0193,0.0155,0.0312,0.0479,0.0479,0.0507,0.0503,0.0499,0.0473,0.0449,0.0549,0.0549,0.0549,0.0549,0.0549,0,-0.0712,-0.0746,-0.0793,-0.0844,-0.089,-0.0891,-0.0894,-0.0869,-0.0835,-0.0698,-0.0599,-0.0364,-0.0119,0.0133,0.0402,0.0534,0.0519,0.055,0.05,0.0495,0.0491,0.0461,0.0536,0.0537,0.0537,0.0537,0,0,-0.0727,-0.0778,-0.0805,-0.089,-0.0928,-0.0958,-0.0957,-0.0909,-0.0806,-0.0673,-0.0514,-0.0359,-0.0062,0.0101,0.0277,0.0428,0.0423,0.0439,0.0438,0.0355,0.0348,0.046,0.0409,0,0,0,0,0]}],[{"header":{"parameterUnit":"m.s-1","parameterCategory":2,"la1":30.2991,"la2":30.254,"lo1":-89.0895,"lo2":-89.0444,"dy":0.0017,"dx":0.0017,"nx":28,"ny":28,"refTime":"2025-09-15T21:00:00:Z","depth":"4","parameterNumber":2,"parameterNumberName":"U-component_of_CURRENTS"},"data":[0,0,0,0,0,0,0,0,0,0,0,0,0,0,0,0,0,0,0,0,0,0,0,0,0,0,0,0,0,0,0,0,0,0,0,0,0,0,0,0,0,0,0,0,0,0,0,0,0,0,0,0,0,0,0,0,0,0,-0.1237,-0.1237,0,-0.1288,-0.1288,-0.1289,-0.1317,-0.1317,-0.1317,-0.1317,-0.1371,-0.1373,-0.1374,0,0,0,0,0,0,0,0,0,0,0,0,0,-0.1155,-0.1156,-0.1237,-0.1237,-0.1238,-0.1287,-0.1288,-0.1289,-0.1317,-0.1317,-0.1317,-0.1317,-0.1371,-0.1372,-0.1374,0,0,0,0,0,0,0,0,0,0,0,0,0,-0.1196,-0.1157,-0.1237,-0.1259,-0.1261,-0.1287,-0.1288,-0.1289,-0.1317,-0.1317,-0.1317,-0.1317,-0.137,-0.1372,-0.1374,-0.1381,0,0,-0.138,-0.1381,0,0,0,0,0,0,0,0,-0.1193,-0.1199,-0.1255,-0.1257,-0.126,-0.1297,-0.1279,-0.132,-0.1317,-0.1295,-0.1317,-0.1317,-0.1347,-0.1351,-0.1359,-0.1384,-0.1386,-0.138,-0.1381,-0.1382,-0.1383,0,0,0,0,0,0,0,-0.119,-0.1196,-0.1256,-0.1255,-0.1259,-0.1263,-0.1269,-0.1287,-0.1318,-0.1297,-0.1299,-0.1306,-0.1349,-0.1357,-0.136,-0.1387,-0.138,-0.1382,-0.1383,-0.1384,-0.148,-0.1481,0,0,0,0,0,0,-0.1186,-0.1194,-0.1254,-0.1258,-0.1228,-0.1264,-0.1271,-0.1284,-0.1318,-0.1324,-0.1306,-0.1307,-0.1353,-0.1358,-0.1362,-0.143,-0.1382,-0.1384,-0.1385,-0.1479,-0.148,-0.1482,0,0,0,0,0,0,-0.1185,-0.1192,-0.1252,-0.1227,-0.1235,-0.1266,-0.128,-0.1285,-0.1318,-0.1325,-0.1331,-0.1337,-0.1354,-0.1359,-0.1394,-0.143,-0.1385,-0.1387,-0.1477,-0.1479,-0.1481,-0.1528,0,0,0,0,0,0,-0.1182,-0.1191,-0.1218,-0.1227,-0.1237,-0.129,-0.128,-0.1286,-0.1321,-0.1324,-0.1353,-0.1357,-0.1354,-0.1391,-0.1396,-0.1432,-0.1388,-0.1475,-0.1478,-0.148,-0.1524,-0.1531,-0.1537,0,0,0,0,0,-0.1179,-0.1218,-0.1219,-0.1228,-0.1267,-0.1291,-0.1297,-0.1318,-0.1323,-0.1347,-0.1359,-0.1357,-0.1412,-0.1394,-0.1399,-0.1436,-0.1474,-0.1477,-0.148,-0.1522,-0.153,-0.1537,0,0,0,0,0,0,-0.1209,-0.1225,-0.1226,-0.1272,-0.1287,-0.1297,-0.1328,-0.1334,-0.1363,-0.137,-0.1372,-0.1377,-0.142,-0.1422,-0.1403,-0.1472,-0.1445,-0.1449,-0.1474,-0.1482,-0.1488,-0.1474,-0.139,0,0,0,0,0,-0.1223,-0.1251,-0.1261,-0.13,-0.1309,-0.132,-0.134,-0.1348,-0.1365,-0.138,-0.14,-0.1419,-0.1434,-0.1453,-0.1468,-0.1507,-0.1481,-0.1536,-0.1542,-0.1547,-0.154,-0.1526,-0.153,-0.1492,-0.1492,-0.1492,0,0,-0.1244,-0.1259,-0.1275,-0.1307,-0.132,-0.1342,-0.1334,-0.1368,-0.1391,-0.138,-0.1434,-0.1443,-0.1448,-0.1488,-0.1509,-0.1497,-0.1546,-0.1551,-0.1556,-0.1545,-0.153,-0.1533,-0.1536,-0.1494,-0.1494,-0.1493,0,0,-0.1281,-0.1312,-0.1335,-0.1352,-0.1376,-0.1383,-0.1397,-0.142,-0.144,-0.148,-0.1475,-0.1499,-0.1542,-0.1544,-0.1549,-0.16,-0.1577,-0.162,-0.1645,-0.1633,-0.1636,-0.1637,-0.1611,-0.161,-0.1627,-0.1627,-0.1627,0,-0.1307,-0.1332,-0.1349,-0.1372,-0.1389,-0.1402,-0.1424,-0.1449,-0.1484,-0.1495,-0.1507,-0.155,-0.1563,-0.1583,-0.1605,-0.1613,-0.1597,-0.1616,-0.1639,-0.1641,-0.1641,-0.1614,-0.1612,-0.163,-0.163,-0.1629,-0.1629,0,-0.1338,-0.1371,-0.139,-0.1417,-0.1444,-0.1468,-0.149,-0.1525,-0.155,-0.1563,-0.1602,-0.1613,-0.1631,-0.1651,-0.1646,-0.1667,-0.165,-0.1644,-0.1615,-0.1648,-0.1617,-0.1615,-0.1634,-0.1633,-0.1632,-0.1631,0,0,-0.1345,-0.1399,-0.1405,-0.142,-0.1465,-0.1483,-0.1531,-0.1559,-0.1581,-0.1625,-0.1647,-0.1683,-0.1684,-0.1688,-0.169,-0.1689,-0.169,-0.1678,-0.1676,-0.1642,-0.1654,-0.1537,-0.1523,-0.169,-0.169,-0.169,-0.163,0,-0.1354,-0.1397,-0.1426,-0.147,-0.1487,-0.1522,-0.1562,-0.1596,-0.1626,-0.1658,-0.167,-0.1696,-0.17,-0.1711,-0.1712,-0.1694,-0.1685,-0.1705,-0.1635,-0.1632,-0.1517,-0.1516,-0.1689,-0.1628,-0.1627,-0.1626,-0.1626,0,-0.1348,-0.1382,-0.1423,-0.1478,-0.149,-0.1528,-0.1575,-0.1613,-0.1656,-0.1679,-0.1702,-0.1711,-0.1723,-0.1721,-0.1697,-0.1711,-0.1686,-0.1668,-0.1665,-0.1533,-0.151,-0.1589,-0.162,-0.1621,-0.1621,-0.1622,-0.1622,0,-0.1301,-0.1368,-0.1401,-0.1421,-0.1494,-0.1525,-0.1566,-0.1617,-0.1643,-0.1688,-0.1703,-0.1718,-0.1721,-0.1703,-0.1674,-0.1689,-0.1629,-0.1642,-0.1507,-0.1499,-0.1602,-0.16,-0.1611,-0.1611,-0.1611,-0.1611,-0.1611,0,-0.127,-0.1297,-0.1387,-0.1404,-0.1447,-0.1508,-0.1551,-0.1593,-0.1646,-0.1651,-0.1708,-0.1697,-0.1718,-0.1689,-0.1667,-0.1562,-0.1618,-0.1495,-0.147,-0.1624,-0.1626,-0.1599,-0.1599,-0.1609,-0.1609,-0.161,-0.161,0,-0.1199,-0.1259,-0.1302,-0.1394,-0.1424,-0.1455,-0.1541,-0.1556,-0.1625,-0.1632,-0.1645,-0.1679,-0.1625,-0.162,-0.1575,-0.1527,-0.146,-0.1409,-0.156,-0.1548,-0.1342,-0.1345,-0.1251,-0.1247,-0.1243,-0.1239,-0.1236,0,-0.1161,-0.1179,-0.1282,-0.1304,-0.1349,-0.141,-0.1437,-0.1529,-0.1535,-0.1591,-0.1567,-0.1559,-0.1554,-0.1399,-0.1414,-0.1339,-0.1326,-0.1296,-0.1332,-0.1317,-0.1303,-0.1312,-0.1321,-0.123,-0.1229,-0.1228,-0.1227,0,-0.1088,-0.1138,-0.1175,-0.1222,-0.1263,-0.1301,-0.1346,-0.1348,-0.142,-0.15,-0.1442,-0.141,-0.134,-0.13,-0.1243,-0.12,-0.1323,-0.1255,-0.1263,-0.1297,-0.129,-0.1282,-0.1295,-0.1213,-0.1215,-0.1216,-0.1217,0,-0.1032,-0.1039,-0.109,-0.1115,-0.1161,-0.1157,-0.1211,-0.1208,-0.1238,-0.1309,-0.1277,-0.1275,-0.1309,-0.1223,-0.1173,-0.1115,-0.1104,-0.1089,-0.1107,-0.1123,-0.1107,-0.1081,-0.0901,0,0,0,0,0,-0.0968,-0.0956,-0.0972,-0.0992,-0.103,-0.1052,-0.112,-0.1172,-0.125,-0.1168,-0.1224,-0.1153,-0.1084,-0.1096,-0.1002,-0.11,-0.1102,-0.0989,-0.1095,-0.1136,-0.1152,-0.1145,0,0,0,0,0,0,-0.0921,-0.0934,-0.0931,-0.0871,-0.0858,-0.0884,-0.0923,-0.0985,-0.0956,-0.1042,-0.1006,-0.1077,-0.102,-0.1096,-0.097,-0.097,-0.1014,-0.1001,-0.0998,-0.1127,-0.1141,-0.1154,-0.1153,0,0,0,0,0]},{"header":{"parameterUnit":"m.s-1","parameterCategory":2,"la1":30.2991,"la2":30.254,"lo1":-89.0895,"lo2":-89.0444,"dy":0.0017,"dx":0.0017,"nx":28,"ny":28,"refTime":"2025-09-15T21:00:00:Z","depth":"4","parameterNumber":3,"parameterNumberName":"V-component_of_CURRENTS"},"data":[0,0,0,0,0,0,0,0,0,0,0,0,0,0,0,0,0,0,0,0,0,0,0,0,0,0,0,0,0,0,0,0,0,0,0,0,0,0,0,0,0,0,0,0,0,0,0,0,0,0,0,0,0,0,0,0,0,0,-0.0316,-0.0316,0,-0.0291,-0.0291,-0.0291,-0.0285,-0.0286,-0.0286,-0.0286,-0.0229,-0.0227,-0.0225,0,0,0,0,0,0,0,0,0,0,0,0,0,-0.0341,-0.034,-0.0316,-0.0316,-0.0316,-0.0291,-0.0291,-0.0291,-0.0285,-0.0286,-0.0286,-0.0286,-0.0229,-0.0227,-0.0225,0,0,0,0,0,0,0,0,0,0,0,0,0,-0.0325,-0.034,-0.0317,-0.031,-0.0309,-0.0291,-0.0291,-0.0291,-0.0285,-0.0286,-0.0286,-0.0286,-0.023,-0.0227,-0.0225,-0.0205,0,0,-0.0217,-0.0216,0,0,0,0,0,0,0,0,-0.0326,-0.0324,-0.0311,-0.031,-0.0309,-0.0291,-0.0279,-0.026,-0.0285,-0.0295,-0.0286,-0.0286,-0.0246,-0.0242,-0.0238,-0.0202,-0.02,-0.0217,-0.0216,-0.0215,-0.0214,0,0,0,0,0,0,0,-0.0327,-0.0325,-0.0307,-0.0311,-0.031,-0.0301,-0.03,-0.0275,-0.0269,-0.0294,-0.0293,-0.029,-0.0246,-0.0241,-0.0237,-0.0199,-0.0217,-0.0215,-0.0213,-0.0213,-0.0126,-0.0126,0,0,0,0,0,0,-0.033,-0.0326,-0.0308,-0.0306,-0.0318,-0.0301,-0.0299,-0.0297,-0.027,-0.0266,-0.029,-0.029,-0.0245,-0.024,-0.0235,-0.02,-0.0215,-0.0212,-0.0211,-0.0127,-0.0126,-0.0125,0,0,0,0,0,0,-0.033,-0.0328,-0.0309,-0.0315,-0.0312,-0.03,-0.0298,-0.0297,-0.0297,-0.0267,-0.0263,-0.0293,-0.0245,-0.0238,-0.0219,-0.0198,-0.0211,-0.0209,-0.0128,-0.0127,-0.0126,-0.0136,0,0,0,0,0,0,-0.0331,-0.0329,-0.0329,-0.0315,-0.0312,-0.03,-0.0298,-0.0296,-0.0294,-0.0294,-0.0268,-0.0263,-0.0244,-0.0223,-0.0217,-0.0195,-0.0207,-0.0129,-0.0128,-0.0126,-0.0136,-0.0135,-0.0134,0,0,0,0,0,-0.0332,-0.0329,-0.033,-0.0327,-0.0312,-0.03,-0.0298,-0.0291,-0.0294,-0.0293,-0.0279,-0.0264,-0.0208,-0.0221,-0.0213,-0.019,-0.013,-0.0128,-0.0126,-0.0137,-0.0135,-0.0134,0,0,0,0,0,0,-0.0336,-0.0327,-0.0328,-0.0322,-0.0314,-0.0299,-0.0296,-0.0295,-0.0283,-0.0285,-0.0262,-0.0255,-0.0229,-0.0209,-0.0224,-0.016,-0.0163,-0.016,-0.0173,-0.0171,-0.017,-0.0174,-0.0205,0,0,0,0,0,-0.0338,-0.0337,-0.0326,-0.0323,-0.0319,-0.0311,-0.0306,-0.0303,-0.029,-0.0287,-0.0267,-0.0241,-0.0213,-0.0196,-0.0171,-0.014,-0.0119,-0.0117,-0.0116,-0.0115,-0.0112,-0.0066,-0.006,-0.012,-0.012,-0.012,0,0,-0.034,-0.0334,-0.0335,-0.0324,-0.0318,-0.0311,-0.0309,-0.0303,-0.0294,-0.028,-0.0261,-0.024,-0.0206,-0.0173,-0.0157,-0.0155,-0.0087,-0.0113,-0.0112,-0.011,-0.0063,-0.0058,-0.0053,-0.0118,-0.0119,-0.0119,0,0,-0.034,-0.0338,-0.0338,-0.0332,-0.0324,-0.0315,-0.0316,-0.0303,-0.0294,-0.0276,-0.0259,-0.0229,-0.0192,-0.0156,-0.0136,-0.0111,-0.0087,-0.01,-0.009,-0.0045,-0.004,-0.0035,-0.0006,0.0001,-0.0093,-0.0093,-0.0093,0,-0.0345,-0.0343,-0.0335,-0.0331,-0.0329,-0.0319,-0.0318,-0.0302,-0.0283,-0.027,-0.0271,-0.0208,-0.0179,-0.0129,-0.0118,-0.0106,-0.0087,-0.0102,-0.0044,-0.0039,-0.0034,-0.0005,0.0003,-0.0093,-0.0093,-0.0093,-0.0093,0,-0.0344,-0.0345,-0.0343,-0.0338,-0.033,-0.0329,-0.0309,-0.0297,-0.0287,-0.0268,-0.0227,-0.019,-0.0151,-0.0129,-0.0116,-0.0059,-0.0061,-0.0055,-0.0052,-0.0029,0.0,0.0009,-0.0094,-0.0094,-0.0094,-0.0094,0,0,-0.0355,-0.0347,-0.0349,-0.0353,-0.0338,-0.0335,-0.0312,-0.029,-0.0278,-0.0243,-0.0219,-0.0158,-0.0141,-0.0116,-0.0087,-0.0041,0.0013,-0.0034,-0.0031,-0.0012,0.01,0.0077,0.0085,0.0025,0.0026,0.0028,0.0103,0,-0.0363,-0.0368,-0.0354,-0.0359,-0.0363,-0.0343,-0.0325,-0.0301,-0.0274,-0.0244,-0.0191,-0.016,-0.0134,-0.012,-0.0066,-0.0013,0.0036,-0.0009,0.008,0.0083,0.0055,0.0095,0.0033,0.011,0.0112,0.0113,0.0114,0,-0.037,-0.0375,-0.0385,-0.0382,-0.0381,-0.0378,-0.0358,-0.0339,-0.0285,-0.0263,-0.0214,-0.018,-0.0107,-0.0095,0.0023,-0.0012,0.0046,0.0091,0.0095,0.0084,0.0077,0.0085,0.0131,0.0129,0.0128,0.0127,0.0126,0,-0.0397,-0.0396,-0.0411,-0.0411,-0.04,-0.04,-0.0392,-0.035,-0.0334,-0.0278,-0.0262,-0.0176,-0.0138,-0.0052,0.0041,0.0033,0.0163,0.0164,0.0202,0.02,0.02,0.0194,0.0255,0.0255,0.0255,0.0255,0.0255,0,-0.0413,-0.0426,-0.0431,-0.0441,-0.046,-0.0436,-0.0439,-0.0413,-0.0371,-0.0353,-0.028,-0.0244,-0.0125,-0.0041,0.0042,0.0147,0.0169,0.0212,0.0225,0.0193,0.0186,0.0206,0.0199,0.0258,0.0257,0.0256,0.0256,0,-0.044,-0.0442,-0.0465,-0.047,-0.0477,-0.0493,-0.0488,-0.0483,-0.0436,-0.0409,-0.0395,-0.0287,-0.0176,-0.0059,0.0086,0.0143,0.0245,0.0278,0.0229,0.0236,0.0251,0.0243,0.0328,0.0328,0.0328,0.0328,0.0328,0,-0.0452,-0.0468,-0.0502,-0.0527,-0.0535,-0.0553,-0.0565,-0.0528,-0.0517,-0.0436,-0.0425,-0.0311,-0.0233,-0.0046,0.0082,0.0241,0.0261,0.0306,0.029,0.0258,0.0262,0.0254,0.0246,0.0328,0.0328,0.0328,0.0328,0,-0.0477,-0.0496,-0.0519,-0.0575,-0.0605,-0.063,-0.0639,-0.0633,-0.058,-0.0538,-0.045,-0.034,-0.0209,-0.0056,0.0071,0.0185,0.027,0.0306,0.0307,0.0293,0.0259,0.0261,0.0253,0.0328,0.0328,0.0328,0.0328,0,-0.05,-0.053,-0.0569,-0.0613,-0.0662,-0.0692,-0.0689,-0.0664,-0.064,-0.0543,-0.0515,-0.0359,-0.026,-0.0083,0.0033,0.0143,0.0169,0.0188,0.0195,0.0197,0.0134,0.007,0.0102,0,0,0,0,0,-0.0516,-0.0551,-0.0601,-0.065,-0.07,-0.0722,-0.073,-0.0712,-0.0661,-0.0613,-0.056,-0.0439,-0.0241,-0.0141,-0.0037,0.0029,0.0182,0.0154,0.0206,0.0328,0.0328,0.0274,0,0,0,0,0,0,-0.0528,-0.0579,-0.0603,-0.0672,-0.0709,-0.0756,-0.0763,-0.0728,-0.0688,-0.0621,-0.0514,-0.0433,-0.0239,-0.0307,-0.0041,-0.0003,0.0039,0.0259,0.026,0.0328,0.0328,0.0328,0.0273,0,0,0,0,0]}]]